Weather reports worldwide

Advertisment
Lanveoc Poulmic, France (7109): temperature & dewpoint: 11.10.2018 08:00:00 - 17.10.2018 08:00:00 (CEST)Lanveoc Poulmic, France (7109): temperature 5cm: 11.10.2018 08:00:00 - 17.10.2018 08:00:00 (CEST)Lanveoc Poulmic, France (7109): wind speed & gusts: 11.10.2018 08:00:00 - 17.10.2018 08:00:00 (CEST)Lanveoc Poulmic, France (7109): wind direction: 11.10.2018 08:00:00 - 17.10.2018 08:00:00 (CEST)Lanveoc Poulmic, France (7109): reduced air pressure: 11.10.2018 08:00:00 - 17.10.2018 08:00:00 (CEST)Lanveoc Poulmic, France (7109): visibility: 11.10.2018 08:00:00 - 17.10.2018 08:00:00 (CEST)Lanveoc Poulmic, France (7109): precipitation: 11.10.2018 08:00:00 - 17.10.2018 08:00:00 (CEST)
Date & Time tt [°C] td [°C] tt 5cm [°C] ff [km/h] ff [kn] fx [km/h] fx [kn] dd ppp [hPa] vv [km] rr [mm]
17.10.2018 08:00:00 12,2 12,2 12,0 9 5 14 7 SSE 1017,9 8 0,0
17.10.2018 07:00:00 12,4 12,4 11,8 8 4 15 8 SSE 1017,8 7 0,0
17.10.2018 06:00:00 12,4 12,4 11,2 10 5 16 8 S 1017,9 6 0,0
17.10.2018 05:00:00 11,8 11,8 9,4 10 5 13 7 S 1018,0 2,3 0,0
17.10.2018 04:00:00 10,8 10,6 8,4 6 4 11 6 SSE 1018,5 2,7 0,0
17.10.2018 03:00:00 10,9 10,7 9,2 6 4 14 7 S 1018,8 7 0,0
17.10.2018 02:00:00 10,6 10,3 8,9 9 5 16 9 SSE 1019,1 12 0,0
17.10.2018 01:00:00 11,0 10,5 9,1 10 6 16 9 SSE 1019,3 19 0,0
17.10.2018 00:00:00 11,3 10,8 9,7 10 5 16 9 S 1019,3 22 0,0
16.10.2018 23:00:00 11,6 11,4 8,8 10 5 17 9 S 1019,3 15 0,0
16.10.2018 22:00:00 11,4 11,1 9,0 8 4 12 6 S 1019,2 18 0,0
16.10.2018 21:00:00 11,8 11,0 9,6 8 4 15 8 S 1019,3 29 0,0
16.10.2018 20:00:00 12,2 10,3 10,5 9 5 12 7 S 1019,0 57 0,0
16.10.2018 19:00:00 14,1 9,5 13,6 8 5 18 10 SSW 1018,6 55 0,0
16.10.2018 18:00:00 15,8 9,5 14,5 10 5 20 11 SSW 1018,4 46 0,0
16.10.2018 17:00:00 14,8 9,8 14,2 14 8 28 15 WSW 1018,4 60 0,0
16.10.2018 16:00:00 15,5 8,9 15,4 14 7 24 13 SW 1018,2 43 0,0
16.10.2018 15:00:00 15,4 10,6 12,9 15 8 27 14 SSW 1018,0 52 0,0
16.10.2018 14:00:00 15,7 10,7 15,5 12 7 19 11 WSW 1018,1 59 0,0
16.10.2018 13:00:00 16,1 11,3 17,2 14 8 22 12 S 1017,9 38 0,0
16.10.2018 12:00:00 15,5 12,4 15,4 9 5 17 9 S 1017,6 20 0,0
16.10.2018 11:00:00 14,7 12,7 15,1 6 3 13 7 S 1017,3 20 0,2
16.10.2018 10:00:00 11,9 11,9 8,7 5 3 6 4 SE 1016,9 3,9 0,0
16.10.2018 09:00:00 11,3 11,1 8,3 3 1 7 4 S 1016,4 4,8 0,0
16.10.2018 08:00:00 11,7 11,5 11,1 0 0 5 3 N 1015,8 4,3 0,0
16.10.2018 07:00:00 11,6 11,4 11,2 2 1 11 6 S 1015,5 2,9 0,0
16.10.2018 06:00:00 11,6 11,4 11,6 5 3 13 7 WNW 1014,9 2,4 0,0
16.10.2018 05:00:00 11,6 11,4 11,7 5 3 11 6 NNW 1014,6 5 0,0
16.10.2018 04:00:00 11,7 11,5 11,5 6 3 15 8 NNW 1014,5 6 0,0
16.10.2018 03:00:00 12,2 11,7 11,9 9 5 14 8 WNW 1014,6 8 0,0
16.10.2018 02:00:00 12,3 11,8 11,7 0 0 9 5 N 1014,1 11 0,0
16.10.2018 01:00:00 12,1 11,8 11,8 0 0 8 4 N 1014,1 10 0,0
16.10.2018 00:00:00 12,1 11,8 11,9 4 2 11 6 NE 1013,9 10 0,0
15.10.2018 23:00:00 12,2 11,9 11,7 7 4 14 7 NNE 1013,7 11 0,0
15.10.2018 22:00:00 12,2 11,9 11,7 10 5 17 9 N 1013,1 3,4 0,0
15.10.2018 21:00:00 12,2 11,7 11,8 10 6 23 12 N 1012,3 18 0,0
15.10.2018 20:00:00 12,4 11,8 11,9 14 8 24 13 N 1011,7 15 0,0
15.10.2018 19:00:00 12,6 11,8 12,6 15 8 21 11 N 1011,4 28 0,0
15.10.2018 18:00:00 12,7 11,9 13,2 12 7 20 11 N 1011,3 14 0,0
15.10.2018 17:00:00 13,4 12,3 14,0 11 6 19 10 N 1011,1 37 0,0
15.10.2018 16:00:00 13,7 11,9 13,9 11 6 21 11 NNW 1010,5 60 0,0
15.10.2018 15:00:00 13,6 12,0 14,3 12 7 23 12 N 1010,4 46 0,0
15.10.2018 14:00:00 13,1 12,2 14,0 12 7 22 12 N 1010,3 36 0,0
15.10.2018 13:00:00 12,7 11,9 13,7 13 7 25 14 NNW 1010,1 41 0,0
15.10.2018 12:00:00 12,6 12,1 12,4 16 9 27 14 NNW 1009,9 14 0,0
15.10.2018 11:00:00 12,1 11,8 11,5 15 8 24 13 NNW 1009,3 20 0,0
15.10.2018 10:00:00 11,6 11,6 10,9 15 8 22 12 NNW 1008,7 6 0,0
15.10.2018 09:00:00 11,6 11,4 11,1 13 7 19 11 NNW 1007,9 2,5 0,2
15.10.2018 08:00:00 11,6 11,4 11,2 7 4 17 9 N 1007,6 1,7 0,2
15.10.2018 07:00:00 11,6 11,1 11,3 14 7 22 12 NNW 1007,3 11 0,0
15.10.2018 06:00:00 11,6 11,0 11,0 9 5 19 10 NNW 1007,2 26 0,0
15.10.2018 05:00:00 11,5 10,9 11,1 13 7 22 12 N 1007,2 20 0,0
15.10.2018 04:00:00 11,4 10,9 11,0 12 6 18 10 NNW 1007,6 9 0,2
15.10.2018 03:00:00 11,5 10,9 11,2 11 6 20 11 N 1007,7 17 0,0
15.10.2018 02:00:00 11,7 10,9 11,4 14 8 26 14 N 1007,5 20 0,0
15.10.2018 01:00:00 11,6 10,7 11,3 16 9 26 14 N 1007,3 47 0,0
15.10.2018 00:00:00 11,8 10,7 11,3 15 8 26 14 N 1007,6 17 0,0
14.10.2018 23:00:00 11,9 10,6 11,4 16 8 28 15 N 1007,6 53 0,0
14.10.2018 22:00:00 11,9 11,1 11,3 17 9 29 16 N 1007,6 45 0,0
14.10.2018 21:00:00 11,8 11,0 11,4 18 10 30 16 N 1007,2 20 0,0
14.10.2018 20:00:00 11,9 11,4 11,5 15 8 29 15 N 1007,0 17 0,0
14.10.2018 19:00:00 11,8 11,3 11,6 17 9 33 18 N 1007,2 15 0,2
14.10.2018 18:00:00 12,2 11,6 12,2 19 11 32 17 N 1006,8 14 0,0
14.10.2018 17:00:00 12,3 11,8 12,6 20 11 29 16 N 1006,7 3,8 0,4
14.10.2018 16:00:00 12,8 11,5 12,4 16 9 32 17 N 1006,6 6 0,2
14.10.2018 15:00:00 12,6 11,0 12,7 18 10 31 17 N 1006,4 41 0,0
14.10.2018 14:00:00 12,7 11,3 12,6 18 10 33 18 N 1006,6 42 0,0
14.10.2018 13:00:00 12,4 11,1 11,8 18 10 32 17 NNE 1006,7 46 0,0
14.10.2018 12:00:00 12,1 11,3 11,7 18 10 40 22 NNE 1006,1 13 0,8
14.10.2018 11:00:00 11,9 11,3 11,2 24 13 41 22 NNE 1004,8 9 1,6
14.10.2018 10:00:00 11,6 10,8 11,4 19 11 54 29 N 1006,0 31 3,8
14.10.2018 09:00:00 12,3 12,0 11,9 22 12 42 23 N 1005,8 4,3 3,1
14.10.2018 08:00:00 12,2 12,0 11,9 19 10 32 18 N 1004,2 9 2,0
14.10.2018 07:00:00 12,2 12,0 11,9 8 4 27 15 N 1005,1 8 4,6
14.10.2018 06:00:00 12,3 12,1 11,8 19 10 28 15 NW 1004,8 1,7 5,1
14.10.2018 05:00:00 12,6 12,4 12,0 13 7 22 12 N 1004,3 2,0 8,7
14.10.2018 04:00:00 12,4 12,2 12,1 3 2 16 9 N 1005,6 4,2 4,2
14.10.2018 03:00:00 12,4 12,1 12,2 5 3 10 6 NNW 1005,9 4,4 3,4
14.10.2018 02:00:00 12,5 12,0 12,2 4 2 19 10 SSW 1006,5 6 2,2
14.10.2018 01:00:00 13,4 13,1 13,1 7 4 15 8 S 1008,4 2,9 3,3
14.10.2018 00:00:00 13,8 13,5 13,2 9 5 16 9 SW 1008,4 6 2,2
13.10.2018 23:00:00 13,8 13,2 13,2 8 4 13 7 S 1008,7 2,5 1,4
13.10.2018 22:00:00 14,1 13,5 13,4 8 4 24 13 S 1008,4 19 0,4
13.10.2018 21:00:00 14,8 14,2 14,4 21 11 37 20 SW 1008,7 4,7 1,2
13.10.2018 20:00:00 16,2 14,7 15,1 21 11 44 24 SW 1008,2 16 0,0
13.10.2018 19:00:00 17,6 15,2 15,5 25 14 44 24 SSW 1007,2 17 0,0
13.10.2018 18:00:00 17,6 15,2 16,1 23 13 46 25 SSW 1007,1 8 0,0
13.10.2018 17:00:00 18,9 15,0 17,2 31 17 49 27 SSW 1007,0 20 0,0
13.10.2018 16:00:00 19,8 14,8 15,9 32 18 62 34 SSW 1006,9 34 0,0
13.10.2018 15:00:00 20,7 14,8 18,0 39 21 69 37 S 1006,9 20 0,0
13.10.2018 14:00:00 21,3 15,2 17,3 42 23 79 42 S 1007,4 18 0,0
13.10.2018 13:00:00 20,4 15,2 18,3 39 21 66 36 S 1007,9 18 0,0
13.10.2018 12:00:00 19,7 14,9 17,0 31 17 59 32 S 1008,8 20 0,0
13.10.2018 11:00:00 20,2 14,6 16,5 33 18 53 29 S 1008,7 20 0,0
13.10.2018 10:00:00 19,2 14,7 14,4 24 13 51 28 S 1008,9 48 0,0
13.10.2018 09:00:00 19,5 14,5 16,4 29 16 49 27 S 1008,8 37 0,0
13.10.2018 08:00:00 19,0 14,7 16,2 29 16 51 27 SSW 1008,4 40 0,0
13.10.2018 07:00:00 17,9 15,0 14,7 26 14 50 27 S 1008,7 31 0,0
13.10.2018 06:00:00 17,1 15,4 14,5 22 12 56 31 S 1009,0 19 0,0
13.10.2018 05:00:00 17,2 16,4 14,7 34 19 61 33 S 1009,3 15 0,8
13.10.2018 04:00:00 17,6 15,6 14,7 36 19 69 37 S 1010,0 2,0 1,4
13.10.2018 03:00:00 18,0 15,8 15,3 29 16 71 39 S 1010,1 8 1,0
13.10.2018 02:00:00 18,7 15,8 15,4 34 18 63 34 S 1010,1 38 0,0
13.10.2018 01:00:00 17,5 16,0 15,4 35 19 63 34 S 1011,1 20 0,0
13.10.2018 00:00:00 17,7 15,9 15,7 37 20 65 35 S 1011,1 10 0,0
12.10.2018 23:00:00 18,3 15,9 15,8 34 19 64 34 S 1011,2 20 0,0
12.10.2018 22:00:00 18,5 15,7 16,6 37 20 60 32 S 1011,2 20 0,0
12.10.2018 21:00:00 18,3 15,4 15,9 35 19 63 34 S 1011,2 20 0,0
12.10.2018 20:00:00 17,8 15,4 16,6 33 18 61 33 S 1011,1 19 0,0
12.10.2018 19:00:00 18,4 14,9 16,0 39 21 68 37 S 1010,6 20 0,0
12.10.2018 18:00:00 17,9 14,6 15,6 35 19 68 37 S 1010,5 20 0,0
12.10.2018 17:00:00 18,2 13,7 15,5 40 22 77 42 S 1010,3 29 0,0
12.10.2018 16:00:00 18,2 13,7 15,9 44 24 79 43 S 1009,8 17 0,0
12.10.2018 15:00:00 18,7 13,8 15,6 44 24 77 42 S 1009,2 10 0,0
12.10.2018 14:00:00 18,7 13,1 17,5 44 24 78 42 S 1008,9 18 0,0
12.10.2018 13:00:00 18,9 13,5 16,2 45 24 74 40 S 1008,5 14 0,0
12.10.2018 12:00:00 18,4 13,3 15,5 49 26 85 46 S 1008,0 13 0,0
12.10.2018 11:00:00 17,7 13,6 15,6 39 21 84 45 S 1008,1 16 0,0
12.10.2018 10:00:00 17,7 13,0 14,5 43 23 79 43 S 1007,8 20 0,0
12.10.2018 09:00:00 17,1 12,6 14,5 40 22 74 40 S 1007,3 20 0,0
12.10.2018 08:00:00 16,9 12,8 14,3 41 22 70 38 S 1007,0 20 0,0
12.10.2018 07:00:00 16,7 13,4 14,4 42 23 81 44 S 1006,9 18 0,2
12.10.2018 06:00:00 16,6 13,5 14,4 40 22 73 40 S 1006,7 20 0,0
12.10.2018 05:00:00 16,4 13,5 14,3 40 22 71 38 S 1006,5 29 0,0
12.10.2018 04:00:00 15,9 13,0 13,9 39 21 68 37 S 1006,9 32 0,0
12.10.2018 03:00:00 15,7 12,6 13,8 39 21 59 32 S 1006,9 27 0,0
12.10.2018 02:00:00 15,5 12,1 13,8 33 18 53 28 S 1006,6 20 0,0
12.10.2018 01:00:00 14,9 12,0 13,3 29 16 49 26 S 1007,2 20 0,0
12.10.2018 00:00:00 14,4 12,1 13,0 27 15 44 24 S 1007,3 20 0,0
11.10.2018 23:00:00 13,6 12,2 12,3 18 10 33 18 S 1007,0 20 0,0
11.10.2018 22:00:00 13,2 11,9 12,0 15 8 26 14 SSE 1006,8 20 0,0
11.10.2018 21:00:00 13,2 11,3 12,0 15 8 27 15 S 1006,8 38 0,0
11.10.2018 20:00:00 13,9 10,1 12,8 19 11 39 21 SSW 1006,5 59 0,0
11.10.2018 19:00:00 14,8 12,1 14,3 22 12 36 19 SSW 1005,6 18 0,0
11.10.2018 18:00:00 15,9 12,3 15,5 23 12 36 20 SSW 1004,8 19 0,0
11.10.2018 17:00:00 15,7 12,3 14,1 21 11 42 23 S 1004,5 19 0,0
11.10.2018 16:00:00 14,8 12,8 12,8 29 16 50 27 SSW 1003,7 12 0,4
11.10.2018 15:00:00 15,6 13,3 15,0 22 12 34 19 S 1003,2 19 0,0
11.10.2018 14:00:00 14,7 12,9 14,1 16 9 41 22 SSW 1002,3 19 0,0
11.10.2018 13:00:00 14,9 12,6 13,9 28 15 59 32 SW 1001,5 29 0,0
11.10.2018 12:00:00 15,2 13,0 14,6 36 19 73 40 SW 1000,2 20 0,0
11.10.2018 11:00:00 16,4 14,2 15,3 41 22 68 37 S 998,5 19 0,0
11.10.2018 10:00:00 15,3 14,0 14,3 29 15 54 29 S 998,7 20 0,0
11.10.2018 09:00:00 15,2 14,9 13,4 26 14 42 23 SSE 998,7 11 0,8
11.10.2018 08:00:00 14,6 14,1 13,5 19 10 33 18 SSE 999,7 10 0,6

tt = temperature
td = dewpoint
tt 5cm = temperature 5cm
ff = wind speed
fx = gusts
dd = wind direction
ppp = reduced air pressure
vv = visibility
rr = precipitation

Next stations